STARLINK-1271, 45217

Orbit data source: Space-Track

STARLINK-1271, 45217 is a payload satellite owned by SpaceX/Seattle (US) in LEO that was launched on Mon, 17 Feb 2020 UTC via an FALCON 9 launch vehicle from the Air Force Eastern Test Range (AFETR). Payload-class satellites include a variety of spacecraft equipped with specific instruments for various scientific and technological missions. These include communications satellites like Starlink; space stations such as the ISS; scientific satellites like the Hubble; Earth observation satellites from companies like Planet Labs, Umbra, and HawkEye 360; GPS; miniature CubeSats for education and research; and military/defense satellites.

Loading next visibility...
Identifier
45217, 2020-012AR
Orbit
LEO
Country
Flag of USUS
Related business
Manufacturer
SpaceX/Seattle
Mission
Partially operational Commercial Communications
Bus & Motor
STARLINK, Unknown motor
Mass
260 kg wet, ~248 kg dry
Launch date (UTC)
2020-02-17 (6 years ago)
Launch vehicle
FALCON 9
Launch site
Air Force Eastern Test Range (AFETR)
Object type
Payload
Rocket body
Debris
Shape & HBR
Box + 1 Pan, 10.1 m
Radar Cross Section
13.562 m², Large (>1 m²)

Expand to show TLE details & history
Last TLE update: 17 hours ago

TLE from 17 hours ago
0 STARLINK-1271
1 45217U 20012AR  26124.28316277  .00022256  00000-0  71710-3 0  9991
2 45217  53.1554 125.5706 0002415  53.3409 306.7814 15.32131639343672
Epoch: 2026-05-04T06:47Z
TLE epoch observation values (Epoch: 2026-05-04T06:47:45.263Z)
Latitude
-0.00004°
Longitude
161.45739°
Altitude
469.364 km
Speed
7.633 km/s
True Right ascension
08h 22m 16s
True Declination
0° 00' 00"
Sunlit
Object was in daylight at epoch
Visualization orbit readout
Latitude
Unknown
Longitude
Unknown
Altitude
Unknown
Speed
Unknown
Apparent Right ascension
Unknown
Apparent Declination
Unknown
Sunlit
N/A
Visualization observer readout
Local Sidereal Time
07:39:29
Azimuth
Unknown
Elevation
Unknown
Doppler factor
Unknown
Orbital elements
Apogee altitude
471.365 km
Perigee altitude
468.057 km
Semi-major axis
6,847.848 km
Eccentricity
0.00024
Inclination
53.1554°
RAAN
125.5706°
Arg. of periapsis
53.3409°
True anomaly
306.75923°
Mean anomaly
306.7814°
Eccentric anomaly
306.77032°
Mean motion
3.83012 °/min
Orbital period
93.99 mins
BSTAR
0.0007171
Loading maneuver chart data...
Computing Atmospheric mass density...
Loading historical data...
Loading historical data...
Loading historical data...
Loading historical data...
Loading historical data...
Loading historical data...
Loading historical data...

Documentation

Showing up to 5 results
|